Theta_e
304 304 304 305 308 309 311 313 316 318 317 319 316 312 309 306 303 301 299 297 296 299 301 305 306 309 313 317 321 324 324 324 323 322 322 323 323 322 321 320 319 320 321 322
303 303 305 305 305 308 310 314 316 315 315 315 312 310 307 305 302 299 297 295 295 296 298 301 303 303 306 309 314 316 322 322 322 320 321 320 320 321 319 319 319 319 320 320
302 304 306 307 308 308 312 314 313 315 314 311 307 304 303 301 299 297 295 295 295 295 295 297 300 301 302 304 306 310 312 316 318 320 321 320 320 321 321 321 321 319 319 320
303 304 306 305 308 310 313 311 311 312 308 306 301 297 295 295 295 294 294 294 294 294 294 295 298 300 301 301 303 304 305 306 308 314 316 316 317 317 316 317 317 317 316 318
305 304 306 308 309 308 312 311 307 307 305 304 299 297 294 293 293 293 293 294 294 294 294 294 296 297 300 301 301 301 301 301 300 303 303 306 308 310 310 309 309 310 309 310
306 306 306 309 306 303 305 312 304 302 301 299 303 307 295 292 292 292 292 293 293 294 293 294 294 296 298 301 301 299 299 300 300 300 300 300 300 301 300 301 302 302 303 304
305 304 307 304 301 303 310 307 300 298 295 295 294 293 291 291 291 291 291 292 292 292 292 292 293 295 296 295 295 296 297 298 298 298 298 300 296 300 300 298 297 299 298 298
306 306 307 299 302 304 303 300 298 295 293 292 291 291 291 291 291 291 291 291 291 291 291 290 291 292 293 292 292 293 294 296 296 295 296 295 297 295 296 297 297 292 292 295
304 303 300 298 297 297 297 298 296 295 293 291 290 290 290 290 291 291 290 289 289 289 289 289 289 290 290 290 293 293 294 293 294 293 293 294 293 294 292 294 293 295 293 292
303 299 297 296 296 295 295 294 293 293 291 290 289 289 289 289 289 289 289 289 288 288 289 288 288 288 288 288 289 290 290 291 291 292 292 292 291 291 292 291 291 291 290 290
301 299 296 295 295 295 294 293 292 291 290 289 289 288 287 287 287 287 288 288 288 288 288 287 288 288 288 288 288 288 288 288 289 290 290 290 290 290 290 289 289 290 290 290
298 296 296 294 293 293 293 293 291 290 289 288 288 287 287 286 286 286 286 286 287 286 286 287 287 287 287 287 288 288 287 287 287 286 286 287 288 288 288 288 288 288 288 288
295 294 293 293 292 292 291 290 290 289 288 287 287 286 286 285 284 285 285 285 285 285 285 286 287 287 287 287 287 287 287 286 286 286 286 285 285 285 286 284 285 285 286 286
294 294 293 293 292 291 291 290 289 288 288 287 286 285 284 284 283 283 283 283 284 285 285 285 285 286 285 285 286 286 285 285 285 285 284 284 283 283 282 281 280 279 278 280
293 294 293 293 293 292 291 289 288 287 286 286 285 284 284 283 282 282 281 283 284 284 284 284 284 284 283 283 283 284 283 283 282 282 282 281 281 281 281 280 280 280 279 279
294 293 293 292 291 290 290 288 287 285 284 284 283 283 282 282 282 282 282 282 283 283 281 281 281 282 282 282 281 281 281 281 281 281 281 280 280 280 280 279 278 277 277 278
294 292 292 290 289 288 287 286 285 284 283 283 282 281 281 282 282 281 281 280 279 280 279 279 279 280 281 281 281 280 280 280 280 280 280 279 279 279 279 278 278 276 276 276
290 290 290 288 287 286 285 284 284 283 283 282 282 281 281 281 281 279 278 278 278 277 277 277 277 278 279 279 279 279 279 279 279 278 278 278 278 277 277 277 276 276 274 274
287 287 286 286 286 285 284 283 282 282 282 282 281 282 281 280 278 277 277 277 277 276 276 277 277 276 277 278 278 278 278 278 278 277 277 277 277 276 276 275 275 274 274 274
284 284 284 283 283 282 282 281 281 282 281 281 281 279 277 277 276 277 278 278 277 275 275 275 276 276 276 277 277 277 277 277 277 276 276 276 276 275 275 274 274 273 273 272
282 282 282 282 281 281 282 281 281 281 279 277 277 276 276 276 275 277 277 276 275 274 275 275 274 274 274 275 275 275 275 275 275 275 275 274 274 274 273 273 273 272 272 271
281 281 281 281 282 281 281 279 278 277 277 276 276 278 278 277 277 277 276 276 275 274 274 274 274 273 273 274 274 273 273 274 274 273 273 273 273 273 272 272 272 271 271 270
281 281 282 281 280 279 278 278 277 277 277 277 277 276 276 276 276 276 275 275 274 273 272 272 272 272 271 272 272 271 272 271 272 272 272 272 272 272 271 271 271 270 270 270
281 281 279 279 280 280 280 279 279 278 278 277 277 277 276 276 275 275 274 274 273 272 272 272 271 271 270 271 270 270 270 270 270 270 270 270 270 269 269 269 269 268 268 268
281 280 281 281 280 280 280 280 279 279 279 278 278 278 277 277 276 274 273 273 272 272 271 271 271 271 270 270 270 270 269 269 269 269 269 269 269 269 268 268 268 268 267 267
281 282 281 281 281 281 280 280 280 280 279 279 278 278 277 277 276 274 273 273 272 272 272 272 271 271 270 270 270 269 269 269 269 269 268 268 268 268 268 268 267 267 267 267
282 281 281 280 280 280 279 279 279 279 279 278 277 277 276 276 275 274 274 273 273 272 272 272 271 271 271 270 270 269 269 269 268 268 268 268 268 267 267 267 267 267 266 266
Wind_Speed
13 18 19 17 21 17 14 16 5 9 11 9 13 14 12 13 10 16 18 20 19 20 18 15 12 12 8 11 14 17 19 21 21 20 19 20 20 19 18 17 16 15 15 11
11 17 18 21 19 16 14 15 8 2 7 12 18 18 17 13 12 15 16 16 17 18 17 15 13 12 10 11 15 18 22 21 21 20 21 20 20 20 20 19 17 16 17 17
8 13 12 10 13 16 10 7 1 0 5 4 9 13 15 12 12 14 14 15 17 18 17 16 14 12 12 12 12 17 20 21 20 21 19 19 21 25 25 23 20 19 18 18
6 10 5 3 14 9 18 11 12 14 11 8 13 16 17 14 12 14 14 14 14 15 15 17 16 13 10 11 12 14 19 18 17 19 19 20 20 19 21 23 22 21 21 21
3 3 8 5 9 8 0 9 16 12 11 9 15 15 18 13 11 12 12 14 14 13 14 14 18 19 17 16 14 14 15 16 17 17 18 19 22 23 21 21 21 20 18 18
2 3 4 10 17 32 20 6 13 12 9 7 8 0 3 8 10 11 11 11 13 13 14 13 15 16 22 22 19 21 20 18 18 17 17 19 18 19 17 15 18 18 18 15
6 2 3 9 27 34 3 4 13 12 12 16 6 8 10 12 13 15 14 14 13 14 17 17 16 14 19 19 21 19 16 16 18 17 17 19 15 17 14 16 18 19 18 17
4 4 1 27 10 7 6 14 13 14 12 18 19 17 15 15 15 14 15 14 15 17 17 16 15 16 21 22 16 15 14 15 15 15 18 17 16 17 18 15 15 20 21 23
5 3 7 12 13 15 14 14 12 13 11 14 17 16 15 16 16 16 14 13 16 18 18 19 18 18 18 15 13 11 10 12 13 13 15 15 15 18 18 18 16 17 16 24
4 5 11 15 16 17 16 15 12 12 11 13 17 15 14 13 13 13 13 13 10 12 15 17 17 20 19 17 15 10 10 12 11 11 13 14 14 16 18 18 18 18 17 22
5 9 11 14 14 11 13 14 16 14 13 15 16 14 13 13 11 11 10 9 8 9 11 14 13 15 17 14 14 19 20 19 17 15 13 15 16 17 17 17 15 15 18 18
3 7 9 7 8 8 15 16 14 14 15 14 12 12 10 12 10 9 9 8 9 11 10 10 11 14 14 12 11 14 15 16 18 18 17 17 15 19 20 17 15 16 16 13
4 11 14 11 11 12 15 16 14 13 13 14 13 13 13 13 12 11 11 11 12 13 13 12 11 12 12 10 9 9 10 11 11 10 10 11 13 14 16 16 14 13 12 12
5 9 11 8 6 10 15 16 18 19 16 14 13 12 12 12 12 11 10 9 9 10 10 11 11 13 13 11 7 8 9 9 8 8 8 8 9 9 10 10 12 14 14 11
11 12 13 9 7 7 11 12 12 12 9 11 10 9 8 10 11 11 7 6 7 8 9 9 9 11 11 12 9 7 9 11 10 9 9 9 8 6 6 6 7 9 10 8
8 9 10 11 12 13 14 12 11 11 9 9 7 6 5 5 5 5 3 4 5 8 8 8 8 10 8 8 11 8 7 8 6 6 6 6 6 4 4 5 4 4 4 5
9 9 8 10 8 7 9 10 9 8 8 8 9 6 6 7 8 8 7 7 7 6 6 6 7 8 7 6 6 5 5 4 4 3 4 3 3 2 3 3 4 6 6 4
9 8 8 8 7 6 6 5 5 4 4 6 6 4 3 4 7 7 7 6 6 5 4 5 6 6 5 4 3 3 2 2 1 2 4 4 5 4 1 2 3 3 5 4
6 8 8 8 5 2 2 3 4 6 7 7 5 4 4 5 6 5 5 5 9 6 3 3 3 5 4 4 1 1 2 1 2 4 6 3 1 2 3 4 2 1 2 2
7 6 6 7 4 4 8 9 9 9 9 7 6 6 6 5 5 5 4 4 8 5 3 2 3 2 5 5 3 2 3 4 3 4 5 3 2 3 5 4 3 3 3 3
5 5 9 8 9 10 11 11 9 8 7 7 7 8 9 8 6 4 4 4 7 5 7 4 4 2 6 7 5 4 6 6 5 4 4 4 4 3 4 4 4 5 5 7
11 13 14 12 11 11 10 8 7 6 6 6 5 5 5 6 4 3 3 6 6 6 7 8 7 2 7 7 5 6 6 7 7 7 7 7 7 7 7 7 7 8 8 8
13 12 12 11 10 8 7 5 5 5 4 4 4 3 2 3 4 6 6 8 10 11 8 8 7 2 5 6 3 4 3 4 6 8 8 8 10 10 11 11 11 11 13 11
12 11 11 10 8 8 8 6 6 8 10 6 8 11 6 4 5 9 9 10 11 8 5 5 9 6 2 2 4 4 4 5 5 5 7 6 4 6 6 7 8 6 9 11
10 11 10 8 4 2 5 9 8 8 7 9 11 12 11 12 13 12 12 11 9 11 10 7 9 9 10 6 5 7 7 6 7 8 6 6 9 9 8 8 10 12 12 12
10 7 4 2 7 5 1 1 2 3 3 4 6 10 14 13 13 14 11 12 12 10 9 12 11 12 12 12 10 11 12 7 8 9 10 11 10 8 8 10 11 13 14 13
8 6 4 2 4 6 5 9 11 10 10 7 7 5 9 9 11 13 12 11 9 10 13 13 13 14 16 14 11 14 10 7 9 11 12 13 13 12 9 13 13 14 15 16
Wind_Direction
276 281 292 279 281 285 303 287 270 311 338 47 80 101 91 81 59 49 35 26 19 24 25 20 38 58 92 116 136 153 164 168 174 180 184 182 180 180 181 185 191 187 190 185
291 304 276 276 276 280 282 274 251 285 292 77 80 87 74 66 58 54 45 34 24 28 28 30 26 46 71 96 121 132 147 167 175 182 197 195 196 194 192 188 187 190 191 188
279 295 283 257 252 249 232 272 26 233 99 75 78 67 47 60 61 57 51 42 35 36 33 36 36 27 61 81 110 127 131 146 159 168 168 158 170 176 185 182 187 188 189 190
280 289 245 204 346 295 102 61 77 85 102 85 96 82 61 58 64 61 54 50 46 47 46 57 57 54 50 72 90 112 117 122 136 154 173 181 192 174 162 163 172 175 170 174
250 266 299 341 5 340 212 61 34 49 45 110 140 104 54 43 57 66 64 56 49 47 42 55 76 79 70 70 76 79 74 84 100 114 128 143 154 160 159 161 156 157 157 157
324 354 311 342 330 317 296 93 37 37 21 357 150 22 68 42 59 65 66 68 65 58 59 56 62 84 94 89 79 78 81 80 83 91 98 102 112 117 120 128 125 128 131 133
215 212 270 355 318 300 139 60 49 52 46 47 78 81 101 79 71 70 71 72 76 68 63 57 63 70 77 84 89 98 97 99 98 98 99 96 97 101 101 102 105 112 116 114
212 202 351 360 351 49 50 58 67 68 75 89 97 98 95 89 84 76 69 68 74 73 70 59 64 74 77 77 80 91 99 103 100 109 109 106 103 103 105 106 106 101 103 105
40 66 48 36 47 44 60 68 73 88 95 104 104 98 96 91 89 85 77 74 81 74 77 73 61 61 75 75 79 88 101 100 109 114 107 110 119 116 109 110 112 110 108 103
108 64 53 37 50 55 66 74 79 90 98 100 101 101 101 96 93 93 94 92 97 94 89 84 84 81 60 59 69 82 94 97 103 109 108 114 118 112 114 113 117 119 117 103
90 110 102 54 50 63 72 80 87 89 91 94 96 94 100 97 94 91 93 92 92 95 92 86 90 94 98 89 83 82 80 83 91 98 110 114 113 106 107 107 112 118 112 113
62 8 111 67 64 82 83 83 77 80 83 85 93 95 97 94 94 95 91 88 87 85 101 100 95 92 93 97 104 101 95 90 89 91 89 92 99 106 104 104 110 112 112 113
74 70 97 105 90 82 86 86 85 86 84 89 88 93 93 93 89 91 89 87 87 88 91 93 95 93 85 82 88 94 101 101 101 97 92 89 90 89 98 98 103 104 106 116
49 129 89 62 100 90 93 98 99 87 84 85 87 89 93 93 89 81 78 78 83 90 93 87 86 86 83 74 78 95 103 112 124 129 133 112 99 94 91 95 98 96 98 101
79 89 94 84 80 99 110 110 91 85 93 101 106 109 112 111 104 99 83 73 80 90 94 94 89 86 79 75 67 78 93 89 91 93 97 96 106 112 101 96 100 102 104 116
105 92 94 93 93 92 92 98 103 103 101 96 96 98 103 123 132 128 82 58 81 85 84 93 102 96 87 72 69 84 100 99 96 96 97 99 97 95 92 77 77 111 122 106
154 86 119 114 109 101 108 125 126 129 120 121 117 104 91 93 101 99 90 74 65 74 88 93 105 119 118 107 95 65 81 100 116 134 110 104 86 38 9 40 79 110 137 151
119 112 122 140 139 133 134 136 132 113 119 142 146 139 108 95 103 105 90 67 57 49 62 82 104 127 133 126 110 88 71 81 90 102 133 141 137 142 156 359 59 104 147 175
118 124 131 145 156 160 131 126 126 123 117 121 133 132 102 91 93 89 65 34 13 17 48 54 108 122 145 147 165 107 148 192 45 106 143 161 161 199 204 182 207 275 315 317
131 133 140 138 133 126 119 114 113 116 111 108 103 97 92 92 98 105 101 60 20 9 332 332 340 25 180 204 233 249 241 243 249 219 215 248 224 164 185 217 234 249 284 309
132 128 130 121 113 111 106 104 105 104 99 90 85 86 80 73 72 40 3 4 6 343 303 32 348 268 198 208 230 237 225 217 220 229 223 200 207 256 269 264 246 244 266 284
119 116 115 117 111 107 106 101 96 90 88 89 96 95 84 76 60 24 305 309 331 319 315 336 337 281 219 225 255 248 230 231 224 224 225 226 229 237 244 250 260 262 268 270
125 121 114 103 101 99 94 87 79 63 51 48 46 55 58 70 18 325 321 323 314 311 311 334 2 321 227 249 256 256 247 220 232 239 243 245 251 248 253 260 262 266 265 264
128 118 115 108 96 77 41 41 54 45 28 23 30 21 13 2 339 316 321 336 337 341 320 338 5 14 246 292 327 324 260 257 251 271 284 275 238 259 280 280 280 277 275 277
128 123 119 99 86 68 13 25 16 354 355 357 352 339 337 340 349 337 320 328 354 352 359 356 356 6 5 329 328 336 335 311 295 300 308 272 254 266 271 277 290 299 301 300
127 116 103 149 130 138 89 324 308 335 309 297 304 317 316 312 324 341 338 338 335 339 351 347 345 343 342 348 332 309 304 309 316 315 314 319 312 294 273 271 280 290 294 294
158 170 125 158 229 259 274 272 259 266 271 268 267 298 298 293 316 332 328 328 325 326 326 329 326 322 322 319 322 332 333 299 292 299 301 303 305 306 288 271 274 281 284 288